Huvudsida
METAR-TAF:

METAR-TAF

Flygplatser :

Kudat, Malaysia

latitud: 06-55N, longitud: 116-50E, höjd: 3 m

Aktuellt väderrapport

Denna rapport gjordes för 58 minuter sedan, klockan 11:00 UTC
Vind 6 kt från väst, varierande mellan syd/sydväst och väst/nordväst
Temperatur 27°C
Fuktighet 79%
Tryck 1008 hPa
Sikt 10 km eller mer
Få moln på en höjd av 1500 ft
Spridda moln på en höjd av 14000 ft
Brutna moln på en höjd av 28000 ft

METAR: WBKT 251100Z 27006KT 210V300 9999 FEW015 SCT140 BKN280 27/23 Q1008

Tid: 19:58 (11:58 UTC)


TAF: saknas

Aktuella väderrapporter och prognoser från 4000 flygplatser (METAR- och TAF-rapporter).

De tillgängliga stationerna syns som gula och röda prickar på kartan.

För musen över prickarna för att se namnen på stationerna.

Klicka sedan för att få väderrapporter och prognoser.

För att ändra kartan: Klicka på de gröna knapparna med ett svart kors på för att zooma in; den gröna knappen med ett streck på för att zooma ut; eller på de gröna pilarna för angränsande kartor.


METAR-TAF: